OEMKR LOXZ-LOGI

Flight info

Callsign OEMKR
Flight time 0h 21m
Altitude 10000
Route WIMMI
Aircraft PC12/L-SDFGRWY/S

Departure

Time 2026-05-08 18:04
Airport Hinterstoisser Air Base (LOXZ)

Arrival

Time 2026-05-08 18:26
Airport Trieben Airfield (LOGI)
Time Latitude Longitude Altitude Speed Heading
2026-05-08 17:39 47.20132 14.75515 2210 ft 0 kts 260°
2026-05-08 17:58 47.20132 14.75497 2211 ft 6 kts 292°
2026-05-08 17:58 47.20199 14.75434 2212 ft 17 kts 285°
2026-05-08 17:59 47.20176 14.75193 2217 ft 31 kts 262°
2026-05-08 17:59 47.20145 14.74907 2227 ft 30 kts 261°
2026-05-08 17:59 47.20117 14.74655 2227 ft 21 kts 258°
2026-05-08 17:59 47.20093 14.74438 2232 ft 21 kts 264°
2026-05-08 18:00 47.20072 14.74276 2232 ft 30 kts 262°
2026-05-08 18:00 47.20021 14.73838 2240 ft 12 kts 263°
2026-05-08 18:00 47.20019 14.73813 2241 ft 0 kts 263°
2026-05-08 18:01 47.20019 14.73808 2241 ft 3 kts 262°
2026-05-08 18:01 47.20045 14.73726 2243 ft 17 kts 326°
2026-05-08 18:01 47.20088 14.73706 2242 ft 0 kts 356°
2026-05-08 18:03 47.20089 14.73705 2242 ft 2 kts 352°
2026-05-08 18:03 47.20168 14.73721 2240 ft 21 kts 40°
2026-05-08 18:03 47.20231 14.74151 2233 ft 76 kts 81°
2026-05-08 18:04 47.20337 14.75167 2341 ft 116 kts 83°
2026-05-08 18:04 47.20436 14.76553 2476 ft 163 kts 85°
2026-05-08 18:04 47.20505 14.78438 2701 ft 197 kts 89°
2026-05-08 18:04 47.20508 14.80551 2986 ft 211 kts 92°
2026-05-08 18:05 47.20456 14.82688 3348 ft 213 kts 90°
2026-05-08 18:05 47.21028 14.84680 3628 ft 221 kts 50°
2026-05-08 18:05 47.22241 14.86082 3991 ft 220 kts 38°
2026-05-08 18:05 47.23415 14.87515 4411 ft 218 kts 48°
2026-05-08 18:06 47.24377 14.89234 4822 ft 217 kts 56°
2026-05-08 18:06 47.25256 14.91051 5193 ft 220 kts 56°
2026-05-08 18:06 47.26171 14.92881 5497 ft 226 kts 55°
2026-05-08 18:06 47.27136 14.94764 5449 ft 227 kts 55°
2026-05-08 18:07 47.28077 14.96591 5441 ft 222 kts 55°
2026-05-08 18:07 47.29087 14.98289 5398 ft 223 kts 39°
2026-05-08 18:07 47.30554 14.98992 5320 ft 225 kts
2026-05-08 18:07 47.32035 14.98360 5246 ft 225 kts 328°
2026-05-08 18:08 47.33000 14.96635 5373 ft 219 kts 294°
2026-05-08 18:08 47.33167 14.94409 5559 ft 223 kts 261°
2026-05-08 18:08 47.32764 14.92185 5809 ft 225 kts 253°
2026-05-08 18:08 47.32301 14.89986 6070 ft 226 kts 255°
2026-05-08 18:09 47.32224 14.87707 6357 ft 227 kts 286°
2026-05-08 18:09 47.32885 14.85659 6803 ft 224 kts 299°
2026-05-08 18:09 47.33655 14.83605 7053 ft 234 kts 300°
2026-05-08 18:09 47.34460 14.81493 7064 ft 235 kts 304°
2026-05-08 18:10 47.35715 14.80047 7074 ft 231 kts 337°
2026-05-08 18:10 47.37186 14.79059 7067 ft 229 kts 336°
2026-05-08 18:10 47.38564 14.78092 7050 ft 211 kts 335°
2026-05-08 18:10 47.39872 14.77158 7053 ft 207 kts 335°
2026-05-08 18:11 47.41167 14.76241 7055 ft 206 kts 335°
2026-05-08 18:11 47.42456 14.75328 7011 ft 207 kts 335°
2026-05-08 18:11 47.43757 14.74409 6884 ft 205 kts 335°
2026-05-08 18:11 47.45033 14.73492 6753 ft 204 kts 332°
2026-05-08 18:12 47.45959 14.71960 6559 ft 203 kts 294°
2026-05-08 18:12 47.46366 14.69991 6422 ft 197 kts 285°
2026-05-08 18:12 47.46698 14.68112 6278 ft 184 kts 286°
2026-05-08 18:12 47.47013 14.66307 6097 ft 182 kts 285°
2026-05-08 18:13 47.47313 14.64568 6123 ft 175 kts 285°
2026-05-08 18:13 47.47617 14.62808 6162 ft 180 kts 285°
2026-05-08 18:13 47.47926 14.61011 6137 ft 178 kts 285°
2026-05-08 18:13 47.48237 14.59215 6027 ft 183 kts 285°
2026-05-08 18:14 47.48551 14.57416 5817 ft 179 kts 285°
2026-05-08 18:14 47.48856 14.55653 5608 ft 176 kts 285°
2026-05-08 18:14 47.49153 14.53899 5394 ft 175 kts 285°
2026-05-08 18:14 47.49447 14.52165 5178 ft 165 kts 285°
2026-05-08 18:15 47.49729 14.50532 4942 ft 160 kts 285°
2026-05-08 18:15 47.50003 14.48945 4712 ft 157 kts 285°
2026-05-08 18:15 47.50277 14.47389 4496 ft 156 kts 285°
2026-05-08 18:15 47.50551 14.45837 4273 ft 156 kts 285°
2026-05-08 18:16 47.50823 14.44302 4019 ft 154 kts 285°
2026-05-08 18:16 47.51082 14.42783 3784 ft 151 kts 285°
2026-05-08 18:16 47.51330 14.41280 3536 ft 150 kts 285°
2026-05-08 18:16 47.51570 14.39789 3283 ft 149 kts 285°
2026-05-08 18:17 47.51803 14.38332 3238 ft 147 kts 285°
2026-05-08 18:17 47.52047 14.36824 3170 ft 150 kts 285°
2026-05-08 18:17 47.52279 14.35385 3076 ft 135 kts 285°
2026-05-08 18:17 47.52488 14.34065 3055 ft 129 kts 285°
2026-05-08 18:18 47.52694 14.32790 3052 ft 126 kts 288°
2026-05-08 18:18 47.53124 14.31651 3060 ft 129 kts 306°
2026-05-08 18:18 47.53673 14.30611 3061 ft 127 kts 329°
2026-05-08 18:18 47.54496 14.30187 3058 ft 127 kts 345°
2026-05-08 18:19 47.55355 14.29801 3067 ft 130 kts 345°
2026-05-08 18:19 47.56226 14.29549 3070 ft 127 kts 15°
2026-05-08 18:19 47.56900 14.30277 3065 ft 127 kts 73°
2026-05-08 18:19 47.56694 14.31554 2920 ft 131 kts 133°
2026-05-08 18:20 47.55894 14.32015 2970 ft 125 kts 187°
2026-05-08 18:20 47.55110 14.31438 2879 ft 130 kts 221°
2026-05-08 18:20 47.54475 14.30682 2915 ft 108 kts 217°
2026-05-08 18:20 47.53795 14.30488 2765 ft 104 kts 161°
2026-05-08 18:21 47.53292 14.31301 2699 ft 117 kts 112°
2026-05-08 18:21 47.53017 14.32372 2724 ft 104 kts 113°
2026-05-08 18:21 47.52776 14.33391 2661 ft 107 kts 102°
2026-05-08 18:21 47.52724 14.34474 2610 ft 105 kts 95°
2026-05-08 18:22 47.52682 14.35526 2561 ft 100 kts 95°
2026-05-08 18:22 47.52643 14.36545 2555 ft 102 kts 95°
2026-05-08 18:22 47.52468 14.37581 2568 ft 105 kts 117°
2026-05-08 18:22 47.52173 14.38564 2571 ft 106 kts 115°
2026-05-08 18:23 47.51878 14.39560 2542 ft 104 kts 115°
2026-05-08 18:23 47.51615 14.40496 2560 ft 94 kts 113°
2026-05-08 18:23 47.51379 14.41404 2547 ft 96 kts 113°
2026-05-08 18:23 47.51115 14.42312 2562 ft 96 kts 115°
2026-05-08 18:24 47.50853 14.43230 2563 ft 96 kts 114°
2026-05-08 18:24 47.50578 14.44115 2566 ft 91 kts 116°
2026-05-08 18:24 47.50291 14.44929 2578 ft 91 kts 120°
2026-05-08 18:24 47.50024 14.45763 2594 ft 89 kts 106°
2026-05-08 18:25 47.49829 14.46631 2580 ft 92 kts 104°
2026-05-08 18:25 47.49705 14.47569 2447 ft 88 kts 104°
2026-05-08 18:25 47.49593 14.48386 2354 ft 76 kts 99°
2026-05-08 18:25 47.49461 14.49149 2325 ft 80 kts 118°
2026-05-08 18:26 47.49360 14.49460 2325 ft 0 kts 105°
2026-05-08 18:27 47.49360 14.49461 2325 ft 0 kts 105°